Back to catalog

CZ-6A DEB

AliveSSO
NORAD 54526·DEBRIS·🇨🇳 China

Launched Nov 11, 2022 from Taiyuan Satellite Launch Center

Loading…

Next Passes (next 24 hours)

TLE

FreshSource: Space-Track

Epoch: Sep 14, 2026, 10:53 UTC

1 54526U 22151KE  26257.45354501  .00000153  00000-0  10917-3 0  9992
2 54526  98.8473 254.6994 0055516 108.9100 251.8100 14.10164350197271

Track CZ-6A DEB in real time with AllMySat

Download on the App Store